Weather observations for the past three days for
Pierre, Pierre Regional Airport
Imperial (Metric)
Date Time (cdt) Wind (mph) Vis. (mi.) Weather Sky Cond. Temperature (ºF) Relative Humidity Wind Chill (°F) Heat Index (°F) Pressure Precipitation (in)
Air Dwpt 6 hour altimeter (in) sea level (mb) 1 hr 3 hr 6 hr
Max. Min.
17 06:53 NE 6 4.00 Fog/Mist CLR 57.9 57.9 64 57 100% 30.16 1020.5
17 05:53 Calm 10.00 Partly Cloudy SCT070 60.1 59 96% 30.14 1019.4
17 04:53 Calm 10.00 A Few Clouds FEW075 57.9 57 97% 30.11 1018.8
17 03:53 Calm 10.00 Fair CLR 61 60.1 97% 30.1 1018.2
17 02:53 NE 5 10.00 Fair CLR 60.1 59 96% 30.09 1017.9
17 01:53 E 3 10.00 Fair CLR 63 61 93% 30.09 1017.9
17 00:53 NE 3 10.00 Fair CLR 64 61 80.1 63 90% 30.08 1017.7
16 23:53 E 6 10.00 A Few Clouds FEW060 63 61 93% 30.07 1017.7
16 22:53 Calm 10.00 Fair CLR 69.1 62.1 78% 30.06 1017.0
16 21:53 NE 3 10.00 Mostly Cloudy BKN065 69.1 63 81% 30.04 1016.6
16 20:53 N 6 10.00 Fair CLR 73 64 74% 30.02 1015.7
16 19:53 NE 6 10.00 Fair CLR 79 62.1 56% 80 30.01 1015.0
16 18:53 N 9 10.00 Fair CLR 80.1 61 81 70 52% 81 30 1014.7
16 17:53 N 6 10.00 Fair CLR 81 63 54% 82 30 1014.7
16 16:53 N 8 10.00 Partly Cloudy SCT120 80.1 62.1 54% 81 30.01 1015.1
16 15:53 N 9 10.00 Fair CLR 79 62.1 56% 80 30.01 1015.0
16 14:53 Vrbl 3 10.00 Fair CLR 77 63 62% 79 30 1014.7
16 13:53 NE 7 10.00 Partly Cloudy SCT110 73.9 63 69% 30 1014.8
16 12:53 SE 5 10.00 Mostly Cloudy BKN110 70 63 70 62.1 79% 30 1015.0 0.22
16 11:53 E 7 10.00 Light Rain FEW028 FEW065 BKN110 66.9 64 91% 29.98 1014.2
16 10:53 E 6 10.00 Partly Cloudy FEW095 SCT110 64.9 61 87% 29.96 1013.7 0.03
16 09:53 E 9 1.25 Thunderstorm Heavy Rain Fog/Mist SCT022 OVC065 63 61 93% 29.99 1014.8 0.19 0.19
16 08:53 NE 14 10.00 Overcast OVC065 64.9 61 87% 30.01 1015.1
16 07:53 NE 8 10.00 Fair CLR 64.9 61 87% 29.95 1012.8
16 06:53 E 7 10.00 Fair CLR 62.1 61 66 61 96% 29.91 1011.7
16 05:53 E 6 10.00 Thunderstorm in Vicinity CLR 62.1 61 96% 29.92 1011.9
16 04:53 NE 5 10.00 Mostly Cloudy BKN080 BKN110 63 61 93% 29.93 1012.2
16 03:53 SE 5 10.00 Partly Cloudy SCT090 64 61 90% 29.91 1011.4
16 02:53 Calm 10.00 Partly Cloudy FEW090 SCT110 64 61 90% 29.91 1011.4
16 01:53 Calm 10.00 Fair CLR 64 60.1 87% 29.92 1011.8
16 00:53 E 5 10.00 Fair CLR 64.9 61 82 63 87% 29.93 1012.3
15 23:53 NE 3 10.00 Fair CLR 66.9 61 81% 29.93 1012.2
15 22:53 Calm 10.00 Fair CLR 68 62.1 81% 29.92 1011.8
15 21:53 NE 5 10.00 Fair CLR 71.1 64 79% 29.9 1011.4
15 20:53 N 5 10.00 Fair CLR 77 64.9 66% 79 29.88 1010.5
15 19:53 NE 8 10.00 Fair CLR 80.1 63 56% 81 29.88 1010.2
15 18:53 NE 7 10.00 Fair CLR 81 64 86 80.1 57% 83 29.88 1010.2
15 17:53 N 10 10.00 Fair CLR 82.9 61 48% 83 29.89 1010.6
15 16:53 N 13 G 22 10.00 Fair CLR 84 59 43% 84 29.89 1010.5
15 15:53 N 10 G 23 10.00 Fair CLR 84.9 61 45% 85 29.9 1010.8
15 14:53 N 14 10.00 Fair CLR 86 63 46% 87 29.9 1010.7
15 13:53 N 15 G 23 10.00 Fair CLR 84.9 68 57% 88 29.89 1010.7
15 12:53 N 17 G 25 10.00 Fair CLR 82.9 69.1 84 72 63% 87 29.89 1010.7
15 11:53 N 17 10.00 Fair CLR 82 68 63% 85 29.88 1010.1
15 10:53 N 17 G 23 10.00 Fair CLR 82 70 67% 86 29.86 1009.4
15 09:53 NW 15 10.00 Fair CLR 77 69.1 77% 79 29.85 1009.2
15 08:53 NW 12 10.00 Partly Cloudy FEW080 SCT100 SCT120 73.9 68 82% 29.83 1008.5
15 07:53 N 17 G 25 10.00 Fair CLR 75 68 79% 76 29.82 1008.1
15 06:53 Calm 10.00 Light Rain FEW070 FEW090 SCT110 72 69.1 73 71.1 91% 29.81 1007.9
15 05:53 Calm 10.00 A Few Clouds FEW100 71.1 68 90% 29.79 1007.0
15 04:53 SE 6 10.00 Fair CLR 72 69.1 91% 29.75 1005.7
15 03:53 SE 6 10.00 Thunderstorm in Vicinity FEW090 72 69.1 91% 29.75 1005.7
15 02:53 SE 6 10.00 Thunderstorm in Vicinity CLR 73 68 84% 29.76 1006.0
15 01:53 SE 10 10.00 Fair CLR 72 66.9 84% 29.77 1006.5
15 00:53 SE 10 10.00 Fair CLR 73 66.9 87.1 73 81% 29.79 1007.3
14 23:53 SE 12 10.00 Fair CLR 75 66.9 76% 76 29.8 1007.6
14 22:53 SE 10 10.00 Fair CLR 75.9 66.9 74% 77 29.83 1008.7
14 21:53 SE 13 10.00 Fair CLR 78.1 69.1 74% 80 29.83 1008.6
14 20:53 SE 9 10.00 Fair CLR 80.1 68 67% 83 29.84 1009.0
14 19:53 SE 12 10.00 Fair CLR 84 64.9 53% 86 29.85 1009.4
14 18:53 SE 15 10.00 Fair CLR 87.1 64 90 82 46% 88 29.87 1009.8
14 17:53 SE 13 10.00 Fair CLR 89.1 63 42% 90 29.87 1010.0
14 16:53 SE 9 10.00 Fair CLR 90 62.1 39% 90 29.91 1011.1
14 15:53 S 9 10.00 Fair CLR 89.1 62.1 41% 89 29.92 1011.8
14 14:53 Calm 10.00 Fair CLR 87.1 61 42% 87 29.93 1012.2
14 13:53 E 5 10.00 Fair CLR 84.9 62.1 46% 85 29.95 1012.7
14 12:53 NW 3 10.00 Fair CLR 82 60.1 82.9 64 47% 82 29.97 1013.5
14 11:53 NW 7 10.00 Fair CLR 80.1 62.1 54% 81 29.98 1013.6
14 10:53 NW 10 10.00 Fair CLR 77 61 58% 79 29.97 1013.5
14 09:53 NW 12 10.00 Fair CLR 73.9 61 64% 29.98 1013.8
14 08:53 NW 12 10.00 Fair CLR 71.1 61 71% 29.98 1013.5
14 07:53 N 7 10.00 Fair CLR 66.9 61 81% 29.95 1012.6
Date Time (cdt) Wind (mph) Vis. (mi.) Weather Sky Cond. Air Dwpt Max. Min. Relative Humidity Wind Chill (°F) Heat Index (°F) altimeter (in) sea level (mb) 1 hr 3 hr 6 hr
6 hour
Temperature (ºF) Pressure Precipitation (in)